Location: Carri�res
(48.9069°N, 2.1792°E)
Time: 13:50:33
(UTC+00:00)

CZ-4 R/B - Pass Details

Date: 17 January 2021
Orbit: 580 x 589 km, 97.7° (Epoch: 26 February)

Event Time Altitude Azimuth Distance (km) Brightness Sun altitude
Rises 17:46:49 0° 156° (SSE) 2,795 7.8 -13.0°
Reaches altitude 10° 17:48:58 10° 153° (SSE) 1,901 6.9 -13.4°
Maximum altitude 17:53:02 62° 73° (ENE) 666 4.4 -14.0°
Drops below altitude 10° 17:57:09 10° 353° (N) 1,922 7.0 -14.7°
Sets 17:59:20 0° 350° (N) 2,829 7.9 -15.0°
